Zurück zum Katalog

USA 372

AktivMilitärVLEO
NORAD 59832·PAYLOAD·🇺🇸 United States

Gestartet May 22, 2024 von Vandenberg Space Force Base

Loading…

Nächste Überflüge (nächste 24 Stunden)

TLE

VeraltetSource: Mike McCants

Epoche: Sep 5, 2026, 19:00 UTC

1 59832U 24096U   26248.79197907 0.00000000  00000-0  00000-0 0    02
2 59832  70.0232 124.4346 0003004 244.2510 115.7489 14.96713879    02

Verfolge USA 372 in Echtzeit mit AllMySat

Download on the App Store